COSMO-SKYMED 3 (33412 NORAD) Tracking and Keplerian Element Data

This shows tracking and keplerian element data for the satellite.

Feedback or suggestion? Click here.




ElementValue
Catalog33412
NameCOSMO-SKYMED 3
Epoch Orbit88204
Epoch Day35.09801657
Epoch Year2025
RAAN240.3694
Inclination97.8834
Eccentricity0.0018354
Argument of Perigee146.7543
Mean Anonmoly213.4838
Mean Motion15.01819689
Decay Rate7.822E-05
L11 33412U 08054A 25035.09801657 .00007822 00000+0 60215-3 0 9996
L22 33412 97.8834 240.3694 0018354 146.7543 213.4838 15.01819689882042



Live tracking and technical data element details for COSMO-SKYMED 3 (NORAD 33412). COSMO-SKYMED 3 can be tracked NOW for your location showing map with azimuth and elevation plus other details from your city location.







IsCatalogInMostPopularTable: catalog: 33412, numindb: 323
Update: records affected: 1



GetName: 33412 COSMO-SKYMED 3

Hit Count: updated at: Sat, 17 May 2025 08:57:34 GMT